Wind_Speed
33 32 32 31 32 31 30 29 31 32 32 31 32 32 33 36 37 38 38 35 34 40 42 41 43 45 43 42 41 37 34 35 36 34 29 25 25 25 24 23 22 20 17 17 18 15 15 16 17 18 17 17 19 21 24 28 31 34 35 36 36 35 35 35 36 37 38 40 41 42 42 41 42 43 43 42 42 42 42 41 42 43 43 44 43 41
33 33 34 33 31 29 29 29 29 30 29 29 30 31 33 35 38 39 33 28 29 35 40 40 42 44 43 44 42 38 36 31 23 20 22 25 27 27 25 21 18 16 15 16 13 10 9 10 10 10 10 10 12 14 16 19 23 28 32 34 34 34 33 32 32 33 33 34 36 37 37 38 39 40 40 41 41 42 42 42 42 44 45 45 44 43
34 35 34 30 27 27 28 28 27 27 28 29 30 32 34 34 37 36 28 24 27 32 39 40 42 46 45 41 36 31 23 12 10 20 30 31 27 23 20 15 11 10 12 11 8 7 6 6 7 8 9 10 11 13 14 15 17 21 25 28 30 32 33 32 33 33 32 32 32 33 34 35 36 37 38 39 40 41 41 42 43 44 45 46 46 45
35 35 32 27 28 29 30 29 28 29 31 32 32 33 34 30 30 32 29 26 26 31 36 38 43 47 36 21 16 13 6 7 21 32 29 24 20 17 13 8 5 4 6 7 7 8 7 5 5 7 10 12 13 14 14 15 16 18 20 22 24 26 28 29 30 30 31 31 30 31 32 32 33 34 35 36 37 38 40 41 42 43 45 46 47 47
38 36 33 31 31 29 29 29 26 27 29 28 27 29 28 24 23 28 30 28 30 31 31 35 40 32 11 4 11 14 14 21 30 27 19 15 13 7 5 4 2 3 5 7 9 10 9 8 7 8 10 13 16 17 17 16 16 17 18 20 21 22 23 23 24 25 27 27 27 27 28 28 29 30 30 32 34 36 38 39 41 42 43 45 47 48
37 33 30 29 26 23 24 22 17 18 25 26 23 21 21 20 22 26 27 29 28 20 21 29 26 12 4 11 23 21 21 26 21 13 10 7 1 4 4 3 3 4 5 7 10 11 11 12 12 13 15 18 20 22 23 21 19 18 19 19 20 21 22 22 22 22 23 24 24 24 24 25 26 26 27 28 31 34 36 39 41 43 44 46 47 48
30 25 22 22 20 17 16 16 14 15 23 27 20 16 18 21 24 26 26 26 20 15 24 25 14 14 18 19 19 16 18 17 7 4 4 6 6 5 5 4 3 3 5 8 12 12 12 15 18 20 23 25 26 26 26 25 23 21 20 20 20 20 21 23 23 24 25 25 25 25 25 26 26 26 26 28 30 33 35 38 41 43 45 47 48 49
22 19 18 18 16 14 15 17 17 14 20 25 21 17 18 21 23 25 26 25 24 27 31 19 10 19 22 13 11 15 14 5 10 11 7 9 9 7 4 6 5 5 7 9 11 11 13 17 21 24 28 31 30 29 29 27 25 23 22 21 21 21 21 23 24 25 26 27 27 27 27 27 27 27 28 29 31 33 35 37 40 42 45 47 49 50
22 21 21 19 18 20 22 22 18 15 18 22 21 19 21 22 23 25 26 25 28 29 18 8 9 16 17 13 11 12 6 6 13 16 8 7 6 3 9 12 12 11 10 9 10 10 14 18 21 27 33 35 32 30 29 27 24 23 22 22 22 22 23 23 24 25 26 28 28 29 29 29 28 29 30 30 32 33 34 37 39 41 44 46 48 50
22 22 22 22 23 26 26 23 19 18 19 20 21 23 24 25 26 26 27 26 25 20 12 14 17 13 11 9 5 7 4 13 12 16 14 7 3 9 13 12 11 12 11 12 14 15 19 22 26 34 37 34 31 30 29 26 23 20 20 21 21 22 23 23 25 26 27 29 30 31 31 31 31 31 31 32 32 33 34 36 39 41 43 46 48 49
24 25 25 26 26 27 25 22 21 19 19 20 23 26 27 28 28 25 24 20 14 11 16 21 18 12 9 3 4 6 11 12 6 3 11 12 8 11 13 12 13 14 16 18 19 21 25 30 34 38 36 31 28 28 27 25 23 20 19 19 20 21 21 22 23 25 26 28 29 30 31 32 33 33 34 33 33 33 33 35 38 40 43 45 47 49
25 26 27 27 26 25 23 21 21 22 22 23 24 27 25 20 17 13 11 8 6 7 10 12 9 14 14 4 8 10 7 5 11 12 12 15 15 14 15 17 18 18 19 22 25 28 34 37 35 33 30 28 27 26 25 24 22 21 20 19 20 20 21 22 22 24 26 27 28 28 29 31 33 34 35 35 35 35 34 35 36 39 41 43 45 47
29 30 29 29 29 29 26 25 26 27 27 26 27 27 16 7 7 6 3 2 6 10 11 9 6 13 23 21 15 13 15 18 18 18 21 24 23 21 20 22 22 21 23 29 36 39 39 39 34 29 26 25 26 26 24 23 22 22 21 20 19 19 20 21 21 23 25 26 27 28 28 28 30 32 34 36 36 36 36 36 37 38 39 41 42 44
27 32 32 30 29 29 28 28 29 28 27 26 26 22 12 4 4 5 4 4 8 12 13 14 10 12 21 21 15 10 9 12 17 20 22 22 23 23 22 25 29 32 36 40 43 38 33 32 29 28 26 26 25 24 22 21 21 22 22 22 22 21 21 21 21 21 22 23 25 26 26 26 27 29 32 34 36 37 38 39 39 40 40 41 41 42
20 24 28 24 23 26 25 24 23 23 25 26 25 22 17 15 11 6 5 5 8 7 6 7 6 9 14 7 5 7 13 19 24 23 23 23 26 29 30 35 39 40 39 36 34 30 27 25 24 23 23 24 25 23 22 22 23 24 25 26 26 26 25 25 24 24 23 23 23 24 25 24 25 26 29 31 33 36 38 39 40 41 41 41 41 41
19 24 30 24 21 24 24 21 20 20 22 24 24 22 22 26 25 19 15 14 13 9 5 10 13 22 30 28 28 32 32 32 30 29 30 28 29 30 29 29 30 29 26 26 26 25 24 23 22 21 21 22 23 24 25 26 28 29 30 31 32 32 31 30 30 29 28 27 26 26 26 25 24 25 27 29 30 32 34 36 38 40 41 41 41 42
20 25 31 27 21 20 19 18 18 18 19 18 18 22 26 30 29 23 18 17 16 10 10 15 21 32 38 36 36 31 23 21 20 20 21 18 17 18 18 19 21 23 25 27 26 24 23 22 22 23 24 24 26 27 30 31 33 35 36 37 38 39 38 36 35 34 32 31 30 29 29 27 27 27 27 28 28 29 30 31 33 35 37 39 40 41
24 29 34 33 28 24 22 22 21 23 25 23 22 27 27 23 23 21 11 7 9 8 9 16 25 30 26 19 16 10 9 12 14 15 14 12 13 15 17 21 22 25 27 27 25 23 24 25 27 29 30 31 32 34 36 37 39 40 41 42 43 44 45 43 41 39 37 35 32 32 32 32 31 31 30 30 29 29 29 29 30 31 33 35 37 40
23 26 30 34 33 26 23 24 24 25 28 28 28 28 23 15 14 15 9 5 7 8 7 14 24 27 27 27 23 16 19 22 21 21 21 19 19 19 20 23 23 26 27 26 26 27 29 31 33 35 37 38 40 41 43 44 43 43 43 44 45 46 47 48 46 43 42 41 38 35 34 34 35 34 35 34 33 32 31 30 30 30 31 32 33 36
19 16 19 26 29 23 19 23 27 27 26 27 28 29 28 24 18 16 14 11 9 9 9 11 15 19 27 34 34 33 35 31 24 24 24 24 25 24 24 26 27 28 30 31 33 34 36 38 39 42 43 44 46 47 48 48 47 46 45 45 45 45 46 47 47 47 45 44 44 41 38 36 36 37 37 38 38 36 35 34 33 32 32 32 32 33
21 19 18 23 28 26 22 23 26 26 25 24 26 28 28 29 27 22 22 25 21 11 9 9 11 18 26 30 35 39 36 29 25 25 27 28 30 29 28 27 27 27 29 33 36 37 39 42 44 46 46 47 49 49 49 49 48 48 47 46 46 45 45 45 46 47 47 46 46 45 43 40 39 38 38 39 40 40 39 38 37 36 35 34 33 33
25 23 23 24 28 33 33 30 27 26 26 25 25 27 28 30 30 20 16 27 32 20 14 12 9 14 23 27 32 35 30 27 30 32 34 35 34 32 31 29 28 30 32 34 37 40 42 43 44 45 46 47 48 49 49 48 48 48 47 46 45 45 46 46 46 47 48 47 47 46 46 45 43 41 40 40 40 41 42 42 41 40 39 38 37 36
31 31 31 32 36 41 43 41 37 33 31 29 28 28 28 29 30 22 12 16 23 22 22 19 11 14 28 34 36 36 34 36 38 38 37 35 32 30 30 32 35 37 39 41 42 42 43 44 45 46 48 49 49 50 50 50 50 50 49 48 47 46 47 47 48 49 50 50 49 48 47 47 46 44 43 42 42 42 42 43 44 44 43 42 40 39
28 29 30 31 35 38 40 41 41 38 35 35 34 33 33 31 30 28 25 24 22 21 22 17 9 13 24 31 34 34 33 36 37 35 33 32 31 33 36 40 43 45 47 48 48 48 49 49 49 49 49 50 49 49 49 50 50 51 51 51 50 49 49 50 51 51 52 52 52 51 49 48 47 47 45 44 43 43 43 43 44 45 46 45 43 42
21 20 18 15 14 17 20 22 24 23 23 24 24 24 28 29 26 25 29 30 22 20 24 18 10 13 19 23 28 29 27 29 31 33 35 37 39 43 46 49 50 50 51 51 51 50 49 49 48 48 48 48 47 47 47 46 46 47 49 51 52 52 53 52 52 52 52 53 53 52 51 49 47 47 46 45 43 42 42 42 42 43 45 46 45 44
25 24 23 16 9 7 9 11 12 15 17 18 20 21 22 22 20 20 23 22 16 16 23 20 16 20 24 25 28 30 31 32 34 37 41 44 46 49 52 53 54 54 54 53 51 49 47 45 44 44 44 44 44 45 45 44 43 44 45 47 49 51 52 53 53 53 53 52 52 52 51 49 48 46 46 46 45 44 42 41 41 41 42 45 46 46
31 31 33 31 25 22 23 25 27 29 30 30 30 32 31 29 30 30 27 24 23 23 24 28 33 34 34 34 36 34 33 35 39 43 45 47 50 51 53 55 56 56 56 54 52 50 48 46 44 43 43 44 44 44 44 43 42 41 41 41 42 44 46 48 49 50 50 50 50 50 50 50 49 48 47 46 47 47 46 44 43 42 42 43 45 46
30 31 34 36 34 34 35 37 37 36 37 38 37 40 42 41 42 43 38 34 31 24 23 34 43 40 41 47 47 41 40 43 47 49 50 51 52 54 55 55 55 54 54 53 51 50 49 47 46 46 46 47 48 48 47 46 44 42 40 39 39 40 40 41 42 43 44 45 47 48 50 51 52 51 51 50 49 50 50 50 49 49 48 47 47 48
28 31 36 38 36 37 39 39 37 35 36 36 36 38 41 42 44 46 45 42 37 29 30 40 46 45 48 52 51 49 50 51 53 53 53 52 52 52 53 52 51 50 50 49 48 48 47 46 46 48 49 50 51 50 50 49 48 46 44 42 41 40 40 40 40 41 41 43 45 47 49 50 51 52 53 53 54 54 54 54 55 54 53 52 52 52
29 33 36 34 33 35 38 39 36 33 32 33 34 35 37 41 44 44 44 44 43 41 43 47 50 53 54 52 51 52 51 51 52 52 51 50 49 49 49 48 48 47 47 47 47 46 46 47 50 52 53 53 51 51 51 50 50 49 48 47 46 45 44 44 44 44 44 44 44 46 46 47 48 49 50 51 52 52 53 54 54 55 54 53 52 53
27 30 29 27 27 30 35 38 34 30 31 34 36 38 42 45 46 45 45 46 47 49 51 51 51 52 52 50 49 47 46 46 45 45 44 44 43 43 44 44 45 45 45 45 45 46 48 51 52 53 53 51 50 50 50 50 51 51 51 52 52 51 50 49 49 49 49 48 48 47 47 47 48 48 48 48 48 48 49 50 52 53 54 54 53 52
21 25 27 26 24 27 33 34 30 31 33 35 40 45 48 49 48 48 49 48 48 50 50 47 46 46 45 44 43 41 40 40 40 40 41 40 40 40 40 41 41 41 42 43 45 49 51 51 52 51 50 49 48 49 50 51 52 53 54 54 54 54 53 52 51 51 51 51 51 50 50 51 51 51 50 50 49 49 49 49 49 50 52 53 53 52
24 27 32 30 25 29 36 33 31 30 24 29 46 52 48 47 46 46 48 48 49 50 46 42 41 41 39 39 39 37 36 36 36 36 35 35 36 36 36 37 39 41 43 46 48 49 49 49 49 48 48 48 49 50 51 53 54 55 55 55 55 54 54 53 52 51 50 50 50 51 51 52 53 54 53 53 53 53 53 52 52 51 51 52 52 52
36 37 40 35 26 29 37 37 31 21 16 33 55 55 46 45 44 42 43 42 42 42 40 38 36 34 34 35 34 32 30 29 30 30 31 33 34 35 37 39 41 43 44 44 45 45 45 45 46 48 49 51 52 53 53 53 54 55 55 55 54 53 53 52 51 51 50 49 49 48 48 49 50 51 52 52 53 54 55 56 56 55 54 53 52 53
43 42 40 34 28 28 31 28 17 10 19 39 46 38 36 37 34 33 36 36 35 35 35 33 31 28 28 30 29 27 26 27 29 30 31 32 33 35 38 39 38 39 39 40 42 43 45 46 48 50 52 52 53 53 53 53 53 53 54 53 53 52 51 51 51 50 50 49 49 48 47 47 47 47 47 48 48 49 51 54 56 57 57 56 55 55
45 43 40 36 31 25 20 16 14 16 27 34 29 27 31 31 29 32 36 35 34 31 28 26 23 21 22 23 23 23 24 26 28 29 28 28 30 32 34 35 36 38 40 42 44 46 47 49 50 51 52 52 52 53 52 52 53 53 53 52 52 52 52 52 52 51 51 51 51 50 49 48 48 47 47 46 46 47 47 48 50 52 54 56 56 56
38 38 38 36 30 24 20 21 24 28 30 30 31 32 30 27 28 30 30 29 27 24 22 20 18 17 17 17 18 20 23 25 27 27 26 29 33 35 37 39 41 42 45 46 47 48 48 47 48 49 50 51 51 52 52 53 53 54 54 53 52 52 53 54 55 54 54 54 54 53 52 51 51 50 49 48 47 47 47 47 47 47 48 51 53 54
29 31 33 31 26 24 21 18 16 16 15 18 26 26 22 22 22 19 19 22 23 24 24 22 18 17 15 15 20 25 29 32 32 30 29 34 39 40 41 43 43 44 45 44 45 46 46 46 47 48 49 50 51 51 52 53 54 55 55 54 54 55 55 56 56 57 57 57 57 56 55 54 54 53 52 52 51 50 50 49 48 48 48 49 50 51
22 25 27 26 23 22 18 12 11 11 11 14 21 24 23 22 19 15 16 22 25 26 22 16 14 15 16 21 28 32 35 38 39 38 37 40 42 41 41 42 41 41 42 42 44 46 46 48 49 49 50 51 52 52 53 55 56 57 57 57 57 58 59 59 59 60 60 61 60 60 59 58 57 57 56 56 55 55 54 54 53 52 52 52 53 52
20 22 23 25 27 27 22 18 17 16 15 15 20 24 24 23 21 19 15 12 14 17 14 13 14 17 23 30 35 37 39 41 42 42 41 41 41 39 39 39 39 40 42 43 44 45 47 49 50 51 52 53 54 55 56 57 58 58 59 59 60 61 62 62 63 63 63 63 63 63 63 62 61 60 60 60 59 59 59 58 58 57 57 57 58 57
19 20 20 23 28 28 25 22 21 21 24 27 28 30 30 27 23 20 15 13 15 17 16 18 22 27 32 37 39 39 40 40 40 40 39 39 40 39 39 38 39 41 42 43 44 45 48 50 51 53 54 55 56 57 58 59 60 61 61 62 63 64 64 65 66 66 66 66 66 66 66 65 65 65 64 64 64 64 63 63 63 63 63 63 63 63
18 17 19 24 27 27 27 23 18 20 28 33 29 25 25 23 21 20 21 22 21 20 21 25 32 36 39 39 38 38 37 36 36 37 37 38 40 40 40 40 41 42 43 44 45 47 48 51 52 54 56 57 58 58 60 61 63 64 65 65 66 66 66 67 68 68 68 69 69 69 69 69 69 69 69 68 69 70 70 69 69 69 69 69 69 68
18 17 20 25 24 22 22 18 12 16 26 27 20 17 21 23 23 24 25 25 24 25 30 36 39 38 36 36 36 35 34 35 35 36 37 38 39 40 40 41 42 44 45 46 47 48 49 52 54 56 57 58 58 59 61 63 65 66 67 67 67 68 69 70 70 71 71 71 71 72 72 72 72 73 74 74 75 76 77 76 75 75 74 74 73 73
23 24 28 30 26 20 19 17 15 20 26 23 18 19 21 21 22 24 27 30 32 34 36 37 36 34 33 34 34 33 34 35 35 36 37 38 39 40 41 43 44 45 46 47 48 50 51 53 55 57 58 59 60 61 62 64 66 67 68 68 69 70 71 72 73 74 74 74 75 75 75 76 77 78 79 80 81 83 83 82 82 81 80 78 77 76
27 30 31 31 28 26 26 26 26 28 30 28 27 28 28 27 28 31 34 36 35 34 32 32 33 33 33 32 32 33 34 34 35 36 37 39 40 41 43 44 46 47 48 49 50 52 53 55 57 58 59 60 60 62 63 64 66 69 70 71 72 74 76 77 78 79 79 79 80 80 80 82 83 84 85 86 87 89 89 88 87 87 85 83 81 79
32 33 33 32 32 33 35 36 35 35 35 35 34 33 32 31 31 30 31 32 31 31 31 32 32 33 32 32 33 34 34 34 35 37 38 39 41 43 44 46 47 48 49 51 52 53 54 55 57 58 60 60 61 62 64 65 68 72 74 76 78 80 82 84 85 86 86 86 87 87 88 89 90 90 91 92 92 93 94 93 92 92 90 87 84 82
34 34 35 35 35 36 37 38 37 36 35 34 32 30 29 28 27 26 28 29 30 31 32 32 32 33 33 33 33 33 34 35 36 38 39 41 43 44 45 47 48 49 50 51 52 53 54 56 57 59 60 61 62 65 68 70 73 77 80 82 85 86 88 90 91 92 93 93 94 94 95 96 96 96 96 96 96 97 96 96 95 94 93 90 87 84
35 34 35 35 35 36 38 39 37 35 34 32 30 29 28 27 27 27 28 29 30 31 32 32 32 32 32 32 33 33 34 36 37 39 41 42 43 45 46 47 49 50 50 51 52 53 55 57 58 60 62 65 67 71 74 77 79 81 83 84 86 88 90 92 93 94 94 95 95 96 97 97 98 98 98 98 98 98 98 97 96 96 94 91 88 86
36 36 38 38 37 39 40 38 35 33 33 32 30 29 29 29 29 30 30 31 31 31 31 32 32 32 32 32 32 33 35 37 38 40 41 42 44 45 47 48 49 49 50 51 52 54 56 58 61 64 68 71 73 76 78 79 79 79 80 82 84 87 90 91 92 92 92 91 91 92 92 92 92 93 93 93 93 94 94 94 94 95 94 92 89 88
39 41 42 39 39 41 40 37 34 34 36 33 31 30 30 31 32 32 32 32 32 31 32 32 31 31 31 32 33 35 36 38 39 40 41 43 44 46 47 48 49 49 50 52 53 56 58 62 66 70 72 73 75 76 75 75 75 76 79 83 87 90 91 90 89 87 85 83 82 81 81 81 82 82 83 84 84 85 86 86 86 87 87 87 86 85
43 43 40 39 41 42 40 37 35 35 36 34 32 33 34 34 35 35 34 34 33 33 33 32 31 31 31 32 34 36 37 39 40 41 42 43 45 46 47 48 49 50 51 54 56 59 63 67 69 70 71 72 71 70 70 72 75 78 82 86 87 86 83 81 79 77 74 72 71 69 69 69 69 70 71 72 73 75 76 77 78 78 78 78 78 78
Wind_Direction
273 269 264 268 275 281 284 285 286 287 287 286 286 285 285 285 287 292 300 304 304 298 295 293 294 296 297 297 300 305 304 302 302 302 299 300 306 307 306 305 303 301 293 281 277 275 270 267 267 273 278 279 278 276 271 266 262 261 262 263 264 264 264 262 262 261 261 260 258 257 258 258 258 259 260 263 266 268 268 268 266 264 263 262 262 262
271 265 267 276 282 284 283 282 282 283 283 285 284 284 283 285 290 297 302 304 301 296 296 299 297 296 297 299 303 306 308 308 303 298 301 309 312 308 304 304 302 294 276 264 262 259 256 261 265 275 288 295 294 293 288 278 269 264 262 262 263 265 266 267 266 265 264 262 259 256 255 255 254 255 256 259 261 263 264 265 264 263 262 261 261 261
269 267 276 285 285 281 280 280 280 279 281 281 281 281 281 287 296 299 303 305 300 297 299 301 298 298 301 304 308 308 308 308 297 305 311 312 311 307 305 305 296 279 260 246 232 220 225 245 261 276 285 291 296 298 297 291 281 273 267 265 264 264 265 265 266 266 265 262 258 254 253 252 253 253 254 255 256 257 258 258 258 258 258 259 258 258
272 275 285 287 283 281 280 279 278 279 280 279 280 278 280 292 298 296 302 305 299 299 300 300 300 304 309 315 324 313 263 272 310 317 317 314 316 314 305 295 276 241 226 215 201 200 209 229 262 284 289 288 290 291 293 291 285 279 274 271 268 267 266 266 266 266 265 263 259 256 256 256 256 257 258 259 259 259 257 256 255 254 254 255 255 255
276 281 287 286 283 282 279 278 278 279 279 278 279 278 285 298 299 297 302 303 302 302 300 304 309 309 316 4 334 309 282 302 320 324 324 326 327 307 259 246 229 189 197 206 202 204 217 234 258 286 302 303 301 296 291 289 286 281 277 275 271 268 266 265 265 265 264 263 261 259 259 260 261 263 264 265 265 264 262 261 259 258 256 255 255 255
280 285 288 285 283 279 275 275 278 278 275 275 278 283 289 298 299 298 301 304 308 306 302 315 320 306 257 298 309 311 306 317 332 333 336 358 20 184 184 182 176 193 211 219 219 223 238 255 272 290 299 301 304 302 294 287 284 281 278 275 272 268 262 258 254 252 252 253 254 256 258 260 263 266 267 267 265 263 262 261 259 258 257 255 254 254
283 289 288 285 282 274 266 269 280 278 271 272 278 284 286 291 296 295 297 301 303 298 300 312 318 290 290 300 308 323 326 329 11 49 38 90 133 144 144 167 173 204 231 231 231 237 253 269 282 290 293 292 294 296 292 287 283 281 279 275 271 267 261 256 250 245 244 245 248 253 257 260 264 266 267 265 263 261 259 256 254 253 252 252 252 252
285 290 289 287 282 272 268 279 293 287 270 272 281 287 284 288 291 290 294 296 294 298 302 310 314 289 290 298 315 339 340 351 94 84 85 118 126 127 172 225 228 230 228 229 237 242 257 269 275 283 290 291 291 292 290 288 285 281 280 278 272 266 261 258 254 251 251 252 254 257 260 263 266 267 265 263 261 259 258 256 255 252 251 250 250 250
284 285 285 286 281 281 285 292 297 286 272 275 285 290 286 288 288 288 292 292 296 302 299 299 305 285 281 289 315 352 1 145 94 60 61 125 136 210 245 238 232 238 241 251 264 254 253 263 272 287 294 289 286 289 289 289 287 283 281 279 276 271 267 264 263 263 263 264 264 265 267 268 269 268 265 262 258 256 255 255 255 254 253 251 250 250
285 284 284 284 285 289 293 293 289 278 274 280 288 291 289 290 289 289 291 290 295 296 268 270 283 276 278 287 329 23 129 156 109 54 34 20 283 239 235 237 248 264 270 275 274 260 260 270 279 290 293 285 279 282 285 287 288 287 284 281 278 275 272 271 270 271 272 273 274 274 273 273 272 270 267 263 258 255 253 253 253 252 252 251 251 250
285 285 284 285 288 292 291 286 280 276 277 282 288 290 290 291 291 291 289 289 292 278 267 278 275 252 261 314 80 112 143 153 160 33 10 349 293 233 227 248 265 272 279 280 274 272 280 284 284 285 285 280 276 277 278 281 283 285 286 283 281 278 277 277 276 276 276 276 277 277 278 277 276 276 272 266 260 255 253 253 253 252 251 251 251 250
280 280 281 283 285 286 286 280 276 275 279 282 285 287 289 293 296 291 281 274 264 263 274 282 260 229 233 205 124 144 163 248 259 254 285 299 280 246 241 260 267 265 270 275 276 281 284 284 282 280 275 272 274 274 273 275 277 280 282 281 281 281 282 283 285 285 283 282 280 279 278 278 278 278 275 269 263 258 255 254 254 253 252 252 251 250
277 275 276 278 277 277 278 276 275 275 277 280 280 279 278 290 296 266 236 217 241 258 266 269 249 229 241 245 240 250 272 274 261 252 264 273 263 243 246 268 276 270 266 269 275 278 274 272 271 269 263 262 266 268 270 272 275 278 281 282 282 284 286 287 288 288 287 285 284 282 280 278 277 276 273 268 265 263 259 256 255 254 253 252 251 250
282 281 277 275 274 275 272 270 273 276 278 280 276 269 250 241 282 257 253 266 260 262 260 260 256 253 266 268 257 265 277 268 269 266 263 262 248 236 247 268 276 276 271 270 272 270 263 259 258 256 254 256 262 266 270 275 279 283 287 288 288 289 292 292 292 290 289 288 286 285 284 283 281 278 275 272 269 267 264 260 257 255 254 253 251 250
281 282 281 276 275 277 274 272 273 276 277 275 270 261 246 246 258 258 253 262 278 283 251 238 235 259 281 273 213 278 292 282 280 272 264 260 250 248 258 265 269 271 269 266 263 258 254 252 251 252 254 258 264 271 278 285 289 290 291 292 291 290 290 291 293 293 292 292 290 289 289 289 289 286 283 281 277 274 271 266 261 257 255 253 251 249
277 278 282 282 279 279 280 276 273 269 267 265 260 251 247 256 259 254 252 262 283 301 261 243 252 267 275 275 277 287 289 280 275 269 265 262 256 256 259 261 263 262 258 255 251 249 251 253 256 262 266 270 276 282 289 293 297 298 298 297 297 297 294 293 293 294 295 294 292 291 292 292 292 291 289 288 285 281 277 273 267 262 258 254 251 248
274 274 278 281 281 279 278 273 264 258 256 255 251 250 259 266 260 252 256 265 270 279 266 257 265 275 280 284 285 286 281 271 268 265 259 251 251 254 256 259 260 259 257 253 250 252 256 260 269 276 278 282 285 289 293 296 300 303 304 304 303 303 301 299 297 296 297 296 294 293 293 292 290 288 288 288 288 285 282 279 275 270 265 260 255 251
266 269 272 275 278 276 273 271 262 254 253 250 251 260 268 267 254 246 254 265 250 253 260 253 263 275 278 281 284 272 260 263 255 250 249 244 251 256 257 259 259 260 258 252 255 263 267 270 279 285 288 288 291 293 296 300 303 304 305 304 303 302 301 301 299 297 296 296 295 293 291 290 288 286 285 285 284 284 284 283 281 278 274 269 263 258
260 269 271 271 274 275 271 269 262 255 252 250 253 259 259 253 244 233 223 239 250 251 252 243 253 262 260 261 266 260 264 268 258 254 256 253 254 257 261 264 263 262 258 257 265 272 276 279 283 289 292 293 295 297 299 302 305 305 303 300 298 297 297 299 300 299 298 296 296 293 290 288 287 285 284 283 282 282 281 281 282 282 281 278 273 267
259 266 270 267 272 277 269 260 258 258 258 255 252 251 247 246 248 239 232 246 255 256 262 248 245 252 254 260 266 266 269 268 260 258 258 259 264 269 272 273 271 268 264 266 271 274 279 284 287 291 293 294 296 298 300 302 304 303 301 298 295 294 295 296 297 297 296 294 294 294 291 288 286 284 283 282 282 281 280 279 279 279 280 281 281 278
269 264 262 266 272 275 267 258 258 263 265 261 253 249 249 250 254 256 257 256 254 255 267 260 253 253 253 257 262 264 265 263 261 268 274 278 282 284 284 282 278 276 273 274 277 281 285 288 290 292 293 295 296 297 299 300 300 300 299 298 296 295 293 292 292 293 293 293 293 294 294 291 287 285 284 283 282 282 282 281 280 279 278 278 279 281
274 271 268 269 269 267 265 265 268 268 266 264 259 256 259 260 258 260 261 254 249 243 246 261 265 248 246 251 256 259 263 268 274 282 286 288 289 289 289 289 289 289 288 288 288 289 289 289 290 292 293 295 295 295 296 297 297 298 298 297 297 296 294 293 292 292 293 294 294 294 295 295 292 289 286 285 284 284 283 284 283 282 280 279 278 278
272 273 271 268 266 266 267 269 271 270 266 264 262 261 263 261 252 248 252 256 252 246 249 260 265 248 251 255 255 257 265 271 277 281 283 284 285 287 290 293 295 296 296 295 293 291 290 290 291 293 294 294 293 293 293 294 296 297 297 297 297 296 296 295 295 295 295 296 297 296 296 296 297 295 291 289 287 285 284 283 284 284 283 282 280 278
271 267 267 268 270 271 271 270 269 270 267 264 261 260 259 256 251 253 262 268 266 259 257 260 259 252 258 260 258 262 268 271 275 279 281 282 282 286 291 294 296 296 295 295 294 294 295 295 296 296 296 295 295 294 293 293 294 295 296 296 296 296 296 296 296 296 296 297 298 298 298 296 296 296 295 293 291 288 286 283 282 282 282 283 282 279
271 262 264 274 277 274 271 269 269 269 267 264 265 266 265 265 266 265 266 266 263 253 250 252 257 260 263 265 265 268 270 271 276 280 282 284 285 288 291 293 294 295 295 295 295 296 297 297 297 298 298 298 299 299 299 297 296 295 295 295 295 295 296 296 296 295 295 296 297 298 298 298 296 294 294 294 293 291 289 285 282 279 277 279 279 279
276 270 273 280 281 274 271 270 272 276 277 277 277 275 272 270 271 275 274 269 267 264 254 251 261 267 264 264 268 272 273 275 279 282 284 286 287 288 291 292 294 295 295 296 297 297 298 298 298 299 300 301 302 303 304 304 303 302 300 299 298 297 297 297 297 296 296 296 295 295 296 297 296 294 293 292 292 291 289 287 284 280 277 276 276 276
276 273 273 273 269 268 270 272 275 278 280 281 279 274 269 265 267 277 280 269 271 282 275 269 276 278 274 274 277 280 281 281 282 283 284 285 286 287 289 291 292 293 294 294 295 297 297 298 299 299 300 301 302 304 304 305 306 306 305 304 302 301 300 299 298 298 297 296 295 294 294 294 295 294 293 291 290 289 288 287 285 282 279 276 273 272
275 272 271 271 271 272 274 276 277 277 275 275 274 273 272 270 270 274 274 270 274 283 279 277 280 280 279 279 278 278 280 282 283 284 284 284 285 286 287 288 289 290 290 291 293 293 294 295 296 297 299 301 302 302 302 303 304 304 304 303 302 301 300 299 298 297 295 294 293 292 292 292 292 292 292 291 289 287 287 286 286 284 282 279 276 273
275 273 274 275 274 273 274 275 275 273 273 273 273 273 275 274 274 274 274 275 277 273 272 278 280 278 280 282 282 282 283 284 285 284 283 284 285 286 286 286 287 287 288 289 290 291 292 293 296 298 300 301 301 301 301 301 301 302 302 301 300 298 296 295 294 294 293 293 293 292 292 292 292 291 291 290 289 287 286 285 285 285 284 283 281 278
277 275 278 278 273 273 274 275 276 277 278 277 276 276 278 277 276 275 275 277 276 271 273 277 278 279 283 285 284 283 283 282 282 282 282 282 283 284 284 284 285 285 286 287 288 289 291 293 296 298 299 300 300 300 300 300 300 301 301 302 301 300 298 295 294 293 293 292 291 291 291 291 291 291 291 291 290 289 287 286 284 284 284 283 283 281
272 271 273 272 272 275 277 279 282 281 279 277 276 276 276 275 274 272 272 275 276 276 277 278 278 280 283 283 281 280 280 279 280 280 280 281 281 281 281 281 282 283 284 285 287 288 290 293 295 296 296 297 298 299 300 300 300 301 302 303 304 304 304 302 300 298 297 296 294 292 290 289 288 288 288 289 289 288 287 286 284 283 283 283 283 281
259 262 268 272 275 275 277 281 282 279 277 275 272 273 274 274 273 273 274 276 279 280 280 278 276 276 277 278 278 279 278 277 277 277 278 279 279 278 278 278 279 280 282 283 286 288 290 292 293 294 294 296 298 299 300 301 301 302 302 304 306 307 308 308 307 305 304 302 300 298 295 292 290 288 286 285 285 285 285 285 284 282 282 283 283 282
264 271 280 283 281 279 281 283 283 284 284 274 272 274 277 277 276 277 277 278 280 280 276 272 271 272 275 277 279 278 277 276 276 277 277 277 275 274 275 277 279 280 282 284 285 287 289 290 291 293 294 296 298 300 301 303 303 304 305 306 307 307 308 308 308 308 307 306 304 303 301 298 296 293 290 287 284 283 282 283 283 282 280 280 281 282
277 281 285 284 276 276 283 284 282 278 266 269 276 280 280 278 278 278 278 279 279 275 270 269 273 276 277 279 279 276 273 271 272 271 271 272 273 274 276 278 280 281 283 284 285 286 287 289 291 294 296 298 300 302 304 305 305 305 305 306 306 307 307 306 306 306 306 305 304 303 302 301 299 297 295 292 289 286 284 282 281 281 281 279 277 278
281 281 282 279 271 271 278 280 277 256 258 274 282 284 279 279 280 280 279 278 275 271 271 275 278 277 276 275 272 270 269 268 268 269 270 273 274 275 275 276 278 280 281 283 285 287 289 292 295 297 299 301 302 304 306 306 306 305 305 305 305 306 305 305 304 304 303 302 301 301 300 299 298 297 296 295 293 291 289 286 283 282 281 280 278 276
278 277 276 273 268 266 261 249 245 259 271 278 282 280 280 284 284 280 277 276 277 277 277 280 282 280 273 267 264 267 270 271 269 267 270 277 281 280 278 278 280 283 285 288 291 293 296 298 299 300 301 302 304 305 306 306 305 304 304 303 303 303 303 303 302 301 300 299 298 298 297 297 296 296 295 295 294 294 292 290 288 286 284 282 280 277
271 269 267 263 259 255 248 243 254 269 275 276 278 280 284 284 280 276 275 277 281 283 283 285 286 278 265 260 270 284 289 289 281 271 273 289 296 294 291 290 290 291 293 295 296 296 298 300 301 301 301 301 303 304 304 304 303 302 301 300 301 301 300 300 299 298 297 296 295 295 295 295 295 294 294 293 293 293 292 292 291 289 288 285 283 280
264 261 259 256 252 251 251 252 261 269 272 276 281 285 288 284 278 274 275 279 282 284 286 285 276 266 265 276 293 304 308 306 297 285 284 294 298 297 295 295 294 295 296 298 299 299 300 301 301 301 301 301 302 302 302 300 299 299 298 298 299 299 299 298 297 295 293 292 292 293 293 294 294 293 293 293 292 292 292 292 291 290 290 289 287 284
261 257 254 248 245 246 245 245 250 254 261 275 282 285 285 278 270 275 289 291 286 282 280 270 256 261 283 299 305 309 310 307 301 295 292 294 295 294 294 295 296 298 300 302 303 303 302 302 301 301 301 301 301 300 299 298 297 296 296 297 297 298 298 297 295 293 291 290 290 291 292 292 291 292 291 292 292 292 291 291 291 290 290 290 290 288
258 254 247 240 241 243 242 245 251 254 258 266 274 279 279 274 275 285 292 288 280 276 270 267 273 284 296 303 305 305 302 299 298 297 295 293 293 293 293 296 299 301 303 303 303 301 300 300 301 301 300 300 300 299 298 296 295 294 294 294 295 296 296 295 292 291 289 288 288 289 290 290 290 290 289 289 290 290 290 290 290 290 289 289 290 289
257 251 245 244 247 246 242 246 254 257 262 269 275 277 277 276 276 273 264 261 271 273 272 280 292 297 300 301 301 298 295 294 294 294 292 291 291 292 293 296 299 301 302 302 300 299 298 298 299 298 299 299 298 297 296 294 293 292 292 292 293 293 293 291 289 288 287 287 287 287 288 288 288 288 288 288 288 288 288 288 288 288 288 288 288 288
258 256 253 251 252 251 248 251 256 262 272 281 284 278 270 265 261 260 266 274 276 271 275 286 295 298 299 297 294 293 293 292 291 291 291 291 292 293 295 297 299 300 301 300 299 297 296 296 296 296 296 297 296 295 294 293 292 291 291 291 292 291 290 289 288 287 286 286 286 287 287 287 287 287 287 287 287 287 287 287 286 286 286 287 287 287
262 262 259 255 254 252 250 247 249 267 280 287 286 274 266 263 265 270 274 274 271 273 284 291 294 295 294 292 291 292 292 291 291 291 292 292 294 296 297 299 300 301 301 300 298 296 294 295 295 296 296 297 296 296 295 294 293 293 292 292 292 291 290 289 288 287 287 287 286 286 286 286 286 286 285 285 285 285 285 285 285 285 285 285 285 285
259 258 260 262 262 256 246 243 253 274 282 282 277 276 275 271 274 278 278 277 279 282 287 290 289 289 290 292 292 291 290 291 291 292 292 293 295 298 299 301 301 301 301 300 299 297 297 297 297 298 298 299 298 296 295 295 294 294 294 293 292 291 290 289 289 288 287 287 286 286 285 285 284 284 283 283 283 283 283 284 283 283 283 283 282 282
265 268 269 269 269 264 259 262 267 273 277 276 275 278 279 277 280 282 283 285 286 286 288 290 288 288 290 291 291 290 291 292 293 294 295 296 298 300 301 301 301 300 300 300 300 300 299 299 299 299 298 298 297 296 295 295 294 294 294 293 292 291 290 290 289 288 287 287 286 285 284 283 283 282 281 281 281 281 281 282 281 281 281 280 280 280
275 277 273 270 270 269 268 270 272 274 278 280 281 283 283 284 286 287 287 289 289 289 291 290 289 289 289 290 291 292 293 295 296 296 297 299 300 300 299 299 300 300 301 301 301 300 299 298 298 298 297 298 297 296 296 296 295 295 295 294 293 293 292 291 290 289 288 287 286 285 284 282 281 280 280 280 279 280 280 280 280 279 279 279 279 278
280 278 273 270 271 270 272 277 281 282 285 288 288 288 289 290 292 293 292 291 290 289 290 289 290 290 290 290 292 294 295 296 297 297 298 298 298 298 298 299 301 302 302 302 301 300 299 299 298 298 299 299 299 298 298 298 297 297 297 296 295 294 293 292 291 289 288 287 286 284 283 282 281 280 280 279 279 279 278 278 278 278 278 278 277 277
280 279 275 273 271 270 275 284 290 291 292 292 292 294 297 298 297 296 293 291 290 289 290 291 291 292 292 292 293 293 294 295 296 296 296 297 297 299 300 302 303 303 302 302 301 301 301 300 301 301 301 301 301 301 300 300 299 298 297 296 295 294 292 291 290 289 287 286 285 284 283 282 281 280 280 279 279 278 278 277 277 277 276 276 275 275
277 276 275 275 275 276 280 289 297 299 296 294 294 298 300 299 296 295 293 292 292 292 292 292 291 292 293 294 293 293 294 294 294 295 296 298 300 301 303 303 303 303 303 302 302 303 303 303 303 304 304 304 303 302 302 301 300 300 299 298 297 296 294 293 292 290 289 288 287 285 284 283 282 281 280 279 278 277 277 276 275 275 274 274 273 272
273 273 272 271 273 278 284 294 300 299 294 294 297 300 299 296 295 294 294 294 295 295 294 292 291 292 293 293 293 293 292 292 294 296 298 301 302 303 303 303 303 303 304 304 304 304 305 305 305 305 305 305 304 303 303 304 303 303 303 302 301 299 298 297 296 294 293 291 290 288 287 285 284 282 281 280 278 277 276 275 274 274 273 272 271 270
275 278 276 272 276 283 291 296 298 294 292 294 296 297 296 295 295 295 295 296 297 297 295 293 292 291 291 291 291 291 291 293 296 299 301 302 303 303 303 304 304 305 306 306 306 306 306 306 306 306 306 306 306 307 307 307 307 307 306 305 303 302 301 300 299 298 297 295 294 292 290 289 287 285 283 281 280 279 278 276 275 273 273 272 271 269
Height
3143 3140 3139 3143 3144 3144 3144 3144 3142 3141 3139 3138 3136 3135 3133 3130 3128 3128 3128 3128 3126 3117 3112 3113 3110 3106 3107 3107 3109 3111 3112 3111 3109 3108 3106 3106 3107 3106 3107 3106 3105 3103 3102 3099 3097 3097 3097 3096 3095 3094 3093 3093 3092 3092 3091 3091 3091 3091 3090 3090 3091 3091 3091 3092 3093 3094 3094 3094 3094 3095 3096 3097 3098 3098 3099 3100 3100 3101 3101 3102 3102 3103 3103 3103 3103 3104
3139 3135 3136 3141 3143 3142 3141 3140 3139 3137 3136 3135 3133 3131 3129 3128 3124 3125 3126 3125 3122 3115 3109 3109 3106 3102 3104 3104 3105 3107 3107 3107 3106 3105 3104 3104 3104 3103 3102 3102 3100 3099 3097 3095 3095 3095 3095 3094 3093 3092 3090 3090 3089 3088 3088 3087 3087 3087 3087 3087 3087 3087 3088 3088 3089 3089 3090 3090 3090 3091 3092 3093 3093 3094 3095 3096 3096 3096 3097 3098 3098 3098 3098 3098 3099 3099
3134 3131 3135 3139 3139 3138 3137 3136 3136 3134 3133 3132 3130 3128 3126 3125 3122 3120 3122 3122 3119 3114 3107 3106 3101 3098 3101 3101 3101 3103 3103 3103 3103 3103 3101 3100 3100 3099 3098 3097 3096 3094 3092 3092 3093 3092 3092 3091 3091 3090 3089 3088 3087 3086 3085 3084 3084 3084 3084 3084 3084 3084 3084 3085 3085 3085 3085 3085 3086 3086 3087 3088 3088 3089 3090 3090 3091 3091 3092 3092 3092 3092 3093 3093 3094 3094
3130 3129 3134 3136 3135 3134 3133 3133 3133 3131 3130 3128 3127 3125 3123 3124 3122 3117 3118 3118 3116 3112 3107 3103 3097 3094 3097 3096 3098 3100 3099 3100 3101 3099 3097 3096 3095 3095 3094 3093 3091 3090 3090 3090 3090 3089 3089 3089 3089 3088 3087 3086 3085 3085 3084 3083 3082 3082 3081 3081 3081 3081 3081 3081 3081 3081 3081 3081 3082 3082 3083 3083 3084 3085 3086 3086 3086 3086 3086 3086 3086 3087 3088 3088 3088 3089
3127 3129 3132 3132 3131 3131 3129 3129 3130 3128 3126 3125 3124 3123 3121 3121 3121 3117 3115 3113 3112 3111 3107 3102 3094 3091 3094 3094 3096 3099 3098 3098 3098 3095 3094 3093 3092 3091 3090 3089 3088 3088 3088 3087 3087 3086 3086 3086 3085 3085 3084 3084 3084 3083 3083 3082 3081 3080 3079 3078 3078 3078 3078 3078 3078 3077 3078 3078 3078 3079 3079 3080 3080 3081 3082 3082 3082 3081 3081 3082 3082 3082 3083 3083 3084 3084
3124 3128 3128 3127 3127 3127 3126 3126 3127 3126 3122 3122 3122 3122 3120 3119 3118 3116 3114 3110 3108 3107 3105 3105 3098 3089 3090 3093 3093 3096 3096 3095 3095 3093 3091 3090 3088 3088 3087 3087 3087 3086 3086 3085 3085 3084 3083 3083 3082 3081 3081 3081 3081 3081 3081 3081 3080 3079 3078 3077 3076 3075 3074 3074 3073 3073 3074 3074 3075 3075 3076 3076 3076 3077 3077 3077 3077 3076 3077 3077 3077 3078 3078 3078 3079 3080
3123 3125 3125 3124 3124 3125 3124 3124 3125 3124 3121 3119 3120 3121 3119 3117 3116 3114 3113 3110 3107 3105 3103 3107 3106 3092 3085 3089 3090 3092 3093 3091 3091 3091 3089 3087 3087 3087 3087 3086 3086 3085 3085 3084 3083 3082 3081 3080 3080 3080 3079 3079 3079 3079 3079 3078 3078 3077 3076 3075 3074 3074 3072 3071 3070 3070 3070 3070 3070 3070 3071 3071 3071 3072 3071 3071 3071 3070 3071 3071 3071 3072 3072 3072 3073 3074
3122 3123 3122 3122 3122 3122 3122 3122 3123 3123 3120 3117 3117 3119 3117 3116 3114 3112 3111 3109 3106 3103 3100 3102 3107 3097 3084 3085 3087 3089 3090 3087 3088 3089 3086 3086 3086 3086 3086 3086 3085 3084 3083 3082 3081 3080 3079 3079 3079 3079 3078 3078 3077 3077 3076 3075 3074 3074 3074 3073 3072 3072 3071 3070 3069 3068 3067 3067 3066 3066 3066 3066 3066 3066 3065 3065 3065 3065 3065 3065 3065 3066 3066 3066 3067 3067
3120 3120 3120 3120 3120 3120 3120 3120 3121 3121 3119 3116 3115 3116 3115 3114 3112 3110 3109 3107 3104 3103 3098 3098 3104 3098 3084 3082 3086 3086 3087 3087 3088 3088 3085 3085 3086 3085 3085 3084 3082 3081 3080 3079 3079 3077 3076 3077 3077 3076 3077 3076 3074 3073 3072 3072 3071 3071 3070 3070 3069 3069 3068 3068 3067 3066 3066 3065 3064 3063 3062 3062 3061 3060 3060 3059 3059 3058 3058 3059 3059 3060 3060 3061 3061 3061
3118 3117 3118 3118 3118 3117 3117 3118 3118 3118 3117 3115 3114 3113 3112 3111 3109 3109 3107 3105 3105 3101 3095 3095 3100 3097 3084 3080 3084 3085 3085 3086 3086 3086 3084 3084 3085 3083 3082 3081 3079 3078 3077 3077 3076 3074 3075 3075 3075 3074 3074 3073 3072 3071 3070 3069 3068 3067 3067 3067 3066 3066 3065 3064 3064 3063 3062 3061 3061 3060 3059 3058 3057 3056 3055 3055 3054 3053 3053 3052 3053 3053 3054 3054 3055 3056
3114 3114 3114 3114 3115 3115 3115 3115 3115 3115 3114 3114 3113 3110 3110 3108 3106 3107 3104 3104 3104 3097 3090 3090 3094 3095 3086 3080 3082 3083 3085 3086 3086 3085 3083 3083 3084 3082 3079 3077 3076 3076 3075 3075 3074 3073 3072 3072 3072 3072 3072 3070 3069 3069 3068 3067 3066 3065 3064 3064 3063 3063 3062 3061 3060 3059 3058 3057 3056 3056 3055 3054 3053 3052 3051 3051 3050 3049 3048 3047 3047 3047 3047 3048 3049 3049
3111 3111 3110 3111 3112 3112 3112 3112 3111 3112 3111 3111 3111 3109 3109 3107 3105 3104 3102 3104 3103 3093 3087 3088 3090 3091 3085 3079 3079 3081 3083 3086 3085 3083 3081 3080 3082 3079 3076 3074 3074 3074 3073 3072 3072 3071 3071 3069 3069 3069 3069 3068 3067 3066 3065 3064 3063 3063 3062 3061 3060 3059 3058 3058 3056 3055 3054 3053 3052 3051 3050 3050 3049 3048 3047 3046 3046 3045 3044 3043 3042 3042 3042 3042 3043 3043
3108 3108 3108 3108 3109 3109 3109 3109 3108 3108 3109 3109 3108 3109 3109 3107 3105 3103 3100 3100 3097 3089 3086 3087 3088 3086 3077 3075 3078 3079 3081 3082 3081 3081 3079 3078 3079 3076 3074 3072 3071 3071 3071 3070 3069 3069 3069 3068 3066 3065 3065 3065 3064 3063 3062 3061 3060 3060 3059 3058 3057 3056 3055 3054 3053 3052 3051 3049 3048 3047 3046 3045 3044 3044 3043 3042 3041 3040 3040 3039 3038 3037 3037 3037 3037 3038
3104 3103 3104 3105 3105 3106 3106 3106 3105 3105 3105 3106 3105 3106 3107 3106 3105 3102 3099 3096 3091 3086 3085 3086 3087 3081 3071 3071 3074 3075 3077 3077 3076 3077 3076 3075 3075 3073 3072 3070 3069 3068 3068 3068 3067 3065 3065 3064 3062 3062 3061 3060 3060 3060 3059 3058 3057 3057 3056 3055 3054 3053 3052 3051 3050 3049 3048 3047 3045 3044 3043 3042 3040 3040 3039 3038 3037 3036 3036 3035 3034 3033 3032 3032 3032 3032
3102 3098 3097 3101 3102 3102 3102 3103 3103 3103 3102 3102 3102 3103 3102 3102 3102 3100 3096 3092 3087 3084 3084 3085 3084 3076 3070 3070 3070 3072 3074 3073 3072 3072 3071 3071 3070 3070 3069 3068 3067 3066 3065 3065 3063 3062 3061 3060 3059 3058 3057 3057 3056 3056 3055 3055 3054 3053 3052 3051 3051 3050 3049 3048 3048 3047 3046 3044 3043 3042 3040 3039 3037 3036 3035 3034 3033 3032 3032 3031 3030 3029 3028 3027 3027 3027
3101 3096 3094 3096 3098 3098 3099 3099 3100 3100 3099 3098 3098 3099 3097 3097 3098 3095 3091 3089 3087 3085 3082 3081 3077 3070 3069 3069 3068 3069 3069 3067 3067 3065 3064 3065 3065 3065 3065 3064 3064 3063 3062 3061 3060 3059 3058 3057 3056 3055 3054 3054 3053 3052 3051 3050 3050 3049 3048 3047 3046 3045 3044 3044 3044 3043 3043 3042 3040 3039 3038 3036 3034 3032 3032 3031 3030 3029 3028 3027 3026 3025 3024 3023 3022 3022
3097 3093 3092 3093 3093 3095 3095 3096 3097 3097 3096 3094 3094 3094 3093 3094 3094 3092 3089 3087 3088 3085 3079 3076 3072 3067 3068 3067 3063 3064 3062 3061 3062 3060 3059 3060 3060 3061 3061 3061 3061 3060 3059 3058 3057 3056 3055 3054 3053 3052 3051 3050 3049 3048 3047 3046 3046 3044 3043 3042 3041 3040 3039 3039 3039 3038 3038 3038 3037 3036 3034 3033 3031 3029 3028 3028 3027 3025 3025 3023 3022 3021 3020 3019 3018 3017
3095 3090 3090 3090 3090 3091 3093 3092 3093 3093 3092 3091 3090 3090 3090 3090 3090 3090 3089 3087 3086 3082 3075 3073 3071 3068 3069 3066 3060 3060 3059 3058 3058 3057 3057 3058 3058 3058 3058 3057 3057 3056 3056 3055 3054 3053 3052 3051 3050 3049 3047 3046 3045 3044 3043 3042 3042 3041 3040 3038 3036 3035 3034 3034 3034 3033 3033 3033 3033 3032 3031 3029 3027 3025 3025 3024 3023 3022 3021 3020 3019 3018 3017 3015 3014 3013
3093 3089 3087 3088 3087 3087 3089 3089 3088 3087 3088 3088 3087 3087 3088 3087 3085 3086 3086 3084 3083 3078 3071 3070 3068 3066 3066 3063 3060 3059 3057 3055 3055 3055 3055 3055 3055 3055 3054 3054 3054 3053 3053 3052 3051 3050 3048 3047 3046 3045 3043 3042 3041 3040 3040 3039 3039 3039 3038 3036 3035 3033 3031 3030 3029 3029 3028 3027 3027 3027 3026 3024 3022 3022 3021 3020 3019 3018 3017 3016 3015 3014 3013 3012 3011 3010
3091 3089 3085 3085 3084 3083 3085 3085 3083 3083 3084 3085 3084 3084 3084 3083 3082 3081 3080 3078 3077 3073 3068 3066 3064 3061 3061 3059 3058 3055 3052 3051 3051 3052 3052 3052 3052 3051 3051 3051 3050 3050 3049 3048 3047 3046 3045 3044 3042 3041 3040 3039 3038 3037 3036 3036 3035 3035 3034 3033 3033 3032 3030 3028 3026 3024 3023 3021 3021 3020 3020 3020 3019 3018 3017 3016 3015 3014 3013 3012 3011 3011 3010 3009 3008 3006
3088 3086 3083 3082 3082 3081 3080 3080 3080 3081 3082 3082 3082 3081 3081 3080 3079 3077 3074 3074 3073 3069 3066 3064 3058 3057 3057 3056 3054 3051 3048 3048 3048 3048 3049 3048 3047 3047 3046 3045 3045 3045 3045 3044 3044 3042 3041 3040 3038 3037 3037 3036 3035 3034 3033 3032 3031 3029 3028 3028 3027 3026 3025 3024 3022 3020 3018 3017 3016 3015 3014 3014 3014 3014 3012 3011 3010 3009 3008 3007 3007 3006 3005 3005 3004 3003
3085 3082 3079 3079 3079 3076 3076 3076 3077 3078 3078 3078 3077 3077 3078 3077 3077 3074 3069 3067 3067 3063 3061 3060 3054 3052 3054 3053 3051 3048 3045 3045 3046 3045 3044 3043 3042 3041 3041 3040 3040 3040 3040 3040 3040 3039 3038 3037 3036 3035 3034 3033 3032 3031 3030 3028 3027 3026 3025 3024 3023 3021 3019 3018 3016 3015 3014 3012 3012 3010 3009 3008 3008 3008 3007 3006 3005 3004 3003 3002 3001 3001 3000 3000 2999 2999
3082 3079 3075 3074 3073 3072 3072 3074 3073 3073 3074 3074 3073 3073 3074 3073 3073 3071 3065 3062 3062 3058 3057 3057 3050 3048 3050 3050 3048 3046 3045 3044 3043 3042 3041 3040 3039 3038 3037 3036 3035 3035 3035 3035 3035 3034 3033 3033 3032 3031 3030 3028 3027 3026 3025 3023 3022 3021 3020 3020 3019 3017 3015 3013 3011 3009 3008 3007 3006 3005 3004 3003 3002 3001 3001 3001 3000 2999 2998 2997 2995 2995 2994 2994 2994 2994
3077 3075 3071 3068 3068 3067 3068 3069 3068 3068 3069 3068 3068 3069 3069 3067 3067 3066 3062 3061 3059 3055 3055 3054 3045 3042 3046 3047 3046 3045 3045 3043 3041 3040 3039 3037 3036 3034 3033 3032 3031 3030 3029 3029 3028 3028 3027 3026 3025 3024 3023 3021 3020 3020 3019 3018 3017 3016 3014 3013 3012 3011 3010 3008 3006 3005 3003 3001 2999 2999 2998 2998 2997 2995 2994 2994 2994 2993 2992 2991 2990 2989 2988 2988 2988 2988
3072 3071 3069 3066 3065 3064 3064 3064 3063 3063 3064 3063 3063 3065 3064 3063 3063 3062 3059 3059 3055 3050 3051 3049 3040 3040 3043 3044 3044 3044 3042 3041 3040 3038 3037 3035 3033 3031 3029 3028 3027 3025 3024 3023 3022 3021 3020 3019 3018 3016 3015 3013 3012 3011 3010 3010 3010 3009 3008 3007 3005 3004 3003 3002 3001 2999 2997 2996 2994 2993 2992 2991 2991 2990 2988 2987 2987 2986 2986 2985 2984 2983 2982 2982 2981 2981
3069 3068 3067 3066 3064 3062 3061 3061 3060 3061 3061 3060 3061 3062 3061 3061 3060 3058 3057 3055 3050 3045 3046 3043 3038 3038 3040 3040 3040 3040 3038 3037 3037 3035 3034 3032 3029 3027 3025 3023 3022 3020 3018 3016 3015 3014 3013 3012 3011 3010 3008 3007 3005 3004 3003 3002 3001 3000 3000 2999 2998 2997 2996 2995 2994 2992 2991 2990 2989 2988 2986 2985 2984 2984 2982 2981 2980 2980 2979 2978 2978 2977 2976 2975 2975 2974
3065 3063 3063 3062 3061 3060 3059 3058 3058 3058 3057 3057 3057 3057 3057 3057 3056 3055 3053 3049 3046 3044 3041 3040 3038 3035 3035 3036 3037 3036 3034 3033 3032 3031 3030 3029 3026 3024 3022 3020 3018 3016 3014 3012 3010 3008 3007 3005 3004 3003 3002 3001 3000 2999 2998 2996 2995 2994 2993 2992 2991 2990 2989 2988 2987 2986 2985 2984 2982 2981 2980 2979 2978 2977 2976 2975 2974 2973 2972 2971 2971 2971 2970 2969 2968 2967
3060 3058 3058 3057 3056 3056 3055 3054 3055 3054 3052 3052 3052 3051 3052 3052 3051 3049 3045 3042 3044 3041 3034 3035 3036 3031 3030 3032 3032 3031 3030 3028 3027 3027 3026 3024 3023 3021 3020 3018 3015 3013 3011 3009 3007 3004 3002 3000 2999 2998 2997 2995 2994 2993 2992 2991 2990 2989 2988 2987 2986 2984 2983 2982 2981 2980 2979 2978 2977 2976 2974 2973 2972 2970 2969 2968 2967 2966 2965 2964 2963 2962 2962 2962 2961 2960
3056 3053 3052 3052 3051 3050 3050 3049 3049 3049 3047 3047 3047 3045 3045 3045 3043 3041 3037 3037 3041 3037 3029 3030 3031 3026 3025 3027 3027 3026 3025 3023 3022 3021 3020 3019 3018 3016 3015 3013 3011 3009 3007 3005 3003 3000 2998 2996 2994 2993 2991 2990 2989 2988 2986 2985 2984 2983 2982 2982 2981 2980 2979 2977 2976 2975 2974 2973 2971 2970 2968 2967 2965 2964 2962 2961 2960 2959 2958 2957 2955 2954 2954 2954 2953 2953
3052 3048 3047 3047 3045 3044 3045 3044 3044 3044 3042 3042 3041 3040 3040 3038 3036 3034 3032 3033 3034 3030 3026 3027 3024 3019 3020 3021 3020 3020 3019 3017 3016 3015 3014 3013 3012 3010 3009 3008 3006 3005 3002 3000 2998 2996 2994 2992 2990 2988 2986 2985 2983 2982 2980 2979 2978 2977 2975 2974 2974 2973 2973 2972 2971 2970 2969 2968 2966 2964 2962 2960 2958 2957 2955 2954 2952 2951 2950 2949 2948 2947 2946 2946 2945 2945
3048 3045 3043 3043 3040 3039 3039 3039 3039 3039 3038 3036 3035 3034 3033 3031 3029 3029 3028 3028 3027 3024 3022 3022 3018 3014 3015 3015 3014 3014 3012 3011 3010 3009 3008 3007 3006 3005 3004 3002 3001 3000 2997 2996 2994 2992 2990 2988 2986 2984 2982 2980 2979 2977 2975 2974 2972 2971 2969 2967 2966 2965 2964 2963 2963 2962 2961 2960 2959 2958 2957 2955 2953 2951 2948 2947 2945 2943 2942 2941 2939 2938 2938 2937 2937 2937
3044 3041 3040 3040 3037 3034 3035 3036 3034 3034 3033 3030 3028 3026 3025 3024 3024 3024 3023 3024 3022 3018 3016 3015 3012 3009 3009 3009 3009 3008 3007 3006 3005 3004 3004 3003 3001 3000 2999 2998 2997 2995 2994 2992 2990 2988 2986 2984 2982 2980 2979 2977 2975 2973 2971 2968 2967 2965 2963 2962 2959 2957 2956 2954 2953 2952 2951 2950 2949 2949 2948 2947 2946 2945 2943 2941 2939 2937 2935 2934 2932 2931 2929 2929 2928 2928
3040 3038 3037 3038 3033 3029 3032 3032 3029 3030 3028 3020 3017 3019 3019 3019 3018 3017 3017 3017 3016 3013 3010 3008 3006 3005 3005 3005 3004 3003 3001 3000 3000 3000 3000 2998 2996 2995 2994 2993 2993 2991 2990 2988 2986 2985 2982 2980 2978 2976 2974 2973 2971 2969 2966 2963 2961 2959 2957 2956 2954 2951 2949 2947 2945 2944 2942 2941 2940 2938 2937 2936 2936 2935 2934 2933 2932 2930 2928 2927 2925 2923 2922 2921 2920 2919
3035 3034 3033 3033 3029 3025 3026 3027 3026 3026 3018 3007 3009 3015 3015 3013 3013 3011 3010 3010 3009 3007 3004 3002 3002 3002 3002 3000 2999 2997 2996 2996 2997 2997 2996 2994 2992 2991 2990 2989 2988 2986 2985 2983 2982 2980 2978 2976 2974 2971 2970 2968 2965 2963 2961 2958 2956 2953 2951 2950 2948 2946 2943 2941 2939 2937 2935 2933 2931 2930 2928 2926 2925 2924 2923 2923 2922 2921 2920 2918 2917 2916 2914 2913 2912 2911
3030 3029 3028 3028 3025 3021 3022 3024 3022 3014 3005 3001 3006 3010 3008 3007 3008 3006 3003 3003 3003 3001 2999 2998 2998 2998 2998 2997 2995 2993 2992 2992 2992 2992 2993 2990 2988 2987 2986 2985 2984 2982 2981 2979 2978 2976 2974 2971 2969 2967 2964 2962 2960 2957 2955 2952 2950 2947 2946 2944 2941 2939 2937 2935 2933 2931 2929 2927 2924 2922 2921 2918 2917 2915 2914 2913 2912 2910 2909 2908 2907 2907 2905 2904 2903 2902
3025 3025 3023 3022 3021 3018 3017 3018 3012 3002 2998 3001 3004 3004 3003 3004 3003 3000 2997 2996 2997 2996 2995 2995 2994 2994 2994 2992 2991 2989 2988 2988 2987 2988 2989 2987 2984 2983 2982 2981 2980 2978 2976 2975 2973 2971 2969 2966 2964 2962 2959 2957 2954 2952 2949 2946 2943 2941 2939 2938 2936 2933 2931 2928 2926 2925 2922 2920 2917 2915 2914 2911 2910 2908 2906 2905 2903 2901 2900 2898 2898 2897 2896 2894 2894 2894
3019 3020 3019 3017 3015 3013 3011 3008 3002 2997 2997 2998 2999 3000 3001 3000 2998 2996 2992 2992 2993 2992 2991 2991 2991 2990 2989 2988 2987 2986 2984 2983 2982 2984 2985 2982 2979 2978 2977 2976 2975 2973 2971 2969 2967 2965 2964 2962 2959 2957 2955 2952 2950 2947 2943 2940 2937 2934 2933 2932 2930 2927 2925 2922 2920 2917 2915 2912 2910 2908 2906 2904 2902 2900 2899 2897 2895 2894 2892 2890 2889 2889 2887 2885 2884 2884
3014 3014 3013 3012 3010 3008 3007 3003 3000 2997 2994 2993 2995 2998 2997 2995 2994 2993 2989 2989 2990 2989 2987 2987 2988 2987 2985 2985 2984 2982 2980 2979 2977 2979 2981 2978 2974 2973 2972 2970 2969 2967 2965 2964 2962 2960 2958 2956 2954 2952 2950 2947 2945 2943 2939 2934 2931 2928 2926 2924 2922 2920 2918 2916 2913 2910 2906 2904 2902 2900 2898 2896 2894 2892 2890 2888 2887 2885 2884 2883 2882 2881 2879 2877 2875 2874
3010 3009 3009 3008 3006 3005 3004 3000 2996 2994 2991 2990 2993 2994 2993 2992 2991 2990 2988 2985 2985 2985 2984 2983 2984 2984 2982 2981 2980 2978 2977 2974 2973 2974 2975 2973 2970 2969 2967 2965 2964 2962 2960 2959 2956 2954 2951 2949 2947 2946 2944 2941 2939 2937 2933 2929 2925 2921 2918 2917 2914 2911 2910 2907 2904 2901 2897 2895 2893 2891 2890 2888 2886 2884 2882 2880 2878 2877 2875 2874 2873 2872 2871 2869 2867 2865
3005 3004 3004 3003 3000 3000 2999 2995 2992 2990 2988 2989 2990 2991 2990 2989 2988 2989 2987 2982 2981 2982 2981 2980 2981 2980 2979 2978 2976 2975 2973 2971 2969 2969 2969 2967 2965 2963 2962 2960 2959 2957 2955 2953 2951 2948 2945 2943 2941 2939 2937 2935 2932 2929 2926 2922 2918 2915 2912 2909 2906 2904 2901 2898 2894 2891 2888 2886 2884 2882 2880 2878 2876 2875 2873 2871 2869 2867 2866 2865 2863 2862 2861 2860 2858 2857
3001 3000 2999 2997 2995 2995 2994 2991 2988 2986 2985 2986 2988 2988 2987 2986 2986 2985 2982 2979 2979 2980 2979 2977 2977 2976 2975 2974 2972 2970 2968 2967 2965 2964 2963 2961 2959 2958 2957 2956 2954 2952 2950 2948 2945 2942 2939 2936 2935 2932 2930 2928 2925 2922 2918 2914 2910 2907 2904 2901 2899 2896 2893 2888 2884 2881 2878 2876 2874 2872 2870 2869 2866 2864 2863 2861 2858 2856 2855 2855 2853 2851 2850 2849 2848 2847
2998 2997 2995 2993 2991 2990 2989 2988 2985 2982 2981 2983 2984 2983 2983 2983 2981 2979 2978 2977 2977 2976 2975 2975 2973 2972 2971 2968 2966 2964 2963 2962 2960 2958 2957 2956 2954 2952 2952 2951 2949 2947 2945 2942 2939 2936 2932 2930 2928 2925 2923 2921 2918 2914 2910 2905 2901 2898 2895 2892 2890 2887 2883 2879 2875 2872 2869 2867 2865 2863 2861 2859 2856 2854 2851 2850 2847 2844 2843 2844 2843 2841 2839 2838 2836 2836
2995 2994 2990 2987 2987 2987 2985 2984 2983 2980 2978 2979 2980 2979 2979 2978 2977 2976 2976 2975 2974 2973 2972 2970 2969 2967 2965 2963 2961 2960 2958 2956 2955 2953 2952 2950 2949 2948 2947 2945 2943 2941 2939 2936 2933 2930 2926 2923 2921 2918 2916 2914 2911 2907 2902 2897 2893 2889 2886 2883 2880 2877 2872 2869 2866 2863 2860 2858 2856 2854 2851 2849 2846 2843 2840 2838 2835 2832 2830 2831 2830 2829 2828 2827 2825 2824
2991 2989 2985 2982 2983 2984 2981 2978 2978 2976 2976 2976 2976 2976 2976 2975 2974 2974 2972 2971 2970 2969 2967 2965 2963 2962 2960 2958 2956 2955 2953 2952 2950 2948 2947 2945 2944 2943 2941 2939 2937 2934 2932 2930 2927 2923 2920 2916 2914 2911 2909 2907 2903 2899 2894 2889 2884 2880 2878 2874 2870 2866 2862 2858 2856 2852 2850 2848 2846 2843 2841 2838 2835 2831 2828 2825 2822 2819 2817 2817 2817 2815 2815 2815 2814 2812
2984 2983 2981 2979 2979 2979 2976 2974 2974 2974 2973 2973 2973 2973 2973 2972 2971 2970 2968 2966 2965 2964 2962 2960 2958 2956 2955 2953 2951 2950 2948 2947 2945 2943 2942 2940 2939 2937 2935 2932 2931 2928 2925 2923 2920 2916 2913 2910 2907 2904 2901 2899 2896 2890 2886 2882 2876 2870 2867 2864 2860 2855 2851 2847 2844 2841 2838 2836 2833 2831 2829 2825 2821 2818 2815 2812 2809 2805 2802 2803 2802 2800 2800 2801 2801 2799
2978 2978 2977 2975 2974 2973 2971 2970 2971 2970 2969 2969 2969 2969 2969 2968 2967 2965 2963 2961 2959 2958 2956 2954 2952 2951 2950 2948 2946 2944 2943 2941 2940 2938 2937 2935 2933 2931 2928 2926 2925 2922 2919 2917 2913 2910 2907 2903 2900 2896 2892 2891 2888 2883 2878 2874 2868 2861 2857 2853 2848 2843 2838 2834 2830 2827 2824 2822 2818 2816 2813 2808 2805 2802 2799 2797 2794 2790 2788 2787 2785 2784 2784 2785 2786 2786
2973 2972 2971 2970 2970 2968 2965 2965 2966 2966 2964 2965 2964 2963 2963 2962 2961 2960 2958 2955 2954 2952 2951 2949 2948 2946 2945 2943 2941 2939 2938 2936 2934 2933 2931 2930 2928 2925 2923 2921 2919 2916 2913 2910 2906 2903 2899 2895 2892 2889 2885 2882 2880 2874 2869 2865 2860 2853 2846 2840 2836 2831 2825 2820 2815 2811 2807 2804 2800 2797 2794 2789 2786 2784 2782 2780 2777 2774 2772 2771 2769 2767 2767 2768 2770 2771
2967 2966 2964 2964 2964 2963 2961 2960 2962 2961 2959 2959 2959 2958 2957 2957 2955 2954 2953 2951 2949 2947 2946 2944 2943 2941 2940 2938 2936 2934 2933 2931 2929 2927 2926 2924 2922 2919 2917 2915 2913 2910 2907 2904 2900 2896 2892 2888 2884 2881 2877 2873 2869 2864 2858 2853 2848 2842 2835 2828 2823 2817 2811 2805 2800 2794 2790 2786 2781 2778 2774 2769 2766 2764 2762 2760 2759 2757 2755 2754 2752 2750 2749 2752 2753 2753
2963 2960 2958 2958 2958 2957 2956 2956 2957 2956 2953 2952 2953 2952 2952 2951 2949 2948 2947 2946 2944 2943 2941 2939 2938 2936 2934 2933 2931 2929 2928 2926 2923 2922 2921 2919 2916 2914 2911 2909 2906 2903 2900 2897 2893 2889 2885 2880 2876 2872 2868 2864 2858 2852 2847 2841 2836 2830 2823 2816 2809 2802 2794 2788 2782 2777 2772 2768 2763 2758 2754 2750 2748 2745 2742 2741 2740 2738 2736 2735 2735 2732 2732 2734 2736 2736
2957 2953 2952 2954 2953 2951 2950 2952 2953 2951 2948 2946 2947 2947 2946 2945 2944 2943 2942 2940 2939 2938 2936 2934 2933 2931 2929 2927 2925 2924 2922 2920 2918 2917 2915 2913 2911 2908 2905 2902 2900 2897 2893 2890 2886 2883 2878 2873 2868 2863 2859 2854 2848 2841 2835 2829 2823 2817 2810 2802 2793 2785 2777 2770 2764 2758 2754 2750 2745 2740 2736 2733 2730 2727 2724 2722 2720 2719 2717 2717 2717 2715 2714 2716 2719 2720
2949 2947 2948 2950 2947 2945 2945 2947 2947 2946 2943 2941 2942 2941 2939 2939 2938 2937 2936 2935 2933 2932 2931 2929 2927 2925 2924 2922 2920 2918 2916 2915 2913 2911 2910 2908 2905 2902 2899 2896 2893 2890 2887 2883 2879 2875 2871 2866 2860 2855 2851 2845 2838 2831 2825 2818 2812 2805 2796 2787 2778 2769 2761 2754 2748 2742 2738 2734 2730 2725 2722 2718 2715 2712 2709 2707 2704 2702 2700 2700 2700 2700 2700 2701 2702 2704